Satellite: DTUSAT-2 Catalog number: 40030 Epoch time: 15008.42743234 Element set: 582 Inclination: 097.9685 deg RA of node: 268.2692 deg Eccentricity: 0.0012494 Arg of perigee: 347.2807 deg Mean anomaly: 012.8062 deg Mean motion: 14.85929397 rev/day Decay rate: 3.561e-05 rev/day^2 Epoch rev: 3005 Checksum: 305
Satellite: ANTELSAT Catalog number: 40034 Epoch time: 15008.75242198 Element set: 597 Inclination: 097.9627 deg RA of node: 264.1943 deg Eccentricity: 0.0059699 Arg of perigee: 270.4408 deg Mean anomaly: 088.9953 deg Mean motion: 14.72076837 rev/day Decay rate: 3.637e-05 rev/day^2 Epoch rev: 2983 Checksum: 352
/EX SB KEPS @ AMSAT $ORB15008.W Orbital Elements 15008.WEATHER
HR AMSAT ORBITAL ELEMENTS FOR WEATHER SATELLITES FROM WA5QGD FORT WORTH,TX January 8, 2015 BID: ORB15008.W TO ALL RADIO AMATEURS BT
Satellite: MET-2/21 Catalog number: 22782 Epoch time: 15008.51695647 Element set: 269 Inclination: 082.5492 deg RA of node: 010.3740 deg Eccentricity: 0.0023165 Arg of perigee: 051.9866 deg Mean anomaly: 110.9012 deg Mean motion: 13.83756138 rev/day Decay rate: 7.6e-07 rev/day^2 Epoch rev: 7851 Checksum: 301
Satellite: OKEAN-4 Catalog number: 23317 Epoch time: 15008.55059192 Element set: 754 Inclination: 082.5366 deg RA of node: 235.3105 deg Eccentricity: 0.0021410 Arg of perigee: 136.3003 deg Mean anomaly: 269.7667 deg Mean motion: 14.86200368 rev/day Decay rate: 1.445e-05 rev/day^2 Epoch rev: 9360 Checksum: 281
Satellite: NOAA-14 Catalog number: 23455 Epoch time: 15008.50465730 Element set: 44 Inclination: 098.7641 deg RA of node: 093.1702 deg Eccentricity: 0.0009916 Arg of perigee: 169.6685 deg Mean anomaly: 311.5073 deg Mean motion: 14.14014800 rev/day Decay rate: 8.7e-07 rev/day^2 Epoch rev: 3296 Checksum: 288
Satellite: NOAA-15 Catalog number: 25338 Epoch time: 15008.51443174 Element set: 485 Inclination: 098.7660 deg RA of node: 007.1168 deg Eccentricity: 0.0009584 Arg of perigee: 271.3490 deg Mean anomaly: 248.7828 deg Mean motion: 14.25545363 rev/day Decay rate: 2.22e-06 rev/day^2 Epoch rev: 86609 Checksum: 320
Satellite: RESURS Catalog number: 25394 Epoch time: 15007.50469172 Element set: 848 Inclination: 098.4440 deg RA of node: 328.5787 deg Eccentricity: 0.0001992 Arg of perigee: 059.1044 deg Mean anomaly: 048.6006 deg Mean motion: 14.24432922 rev/day Decay rate: 6.8e-07 rev/day^2 Epoch rev: 85740 Checksum: 308
Satellite: FENGYUN1 Catalog number: 25730 Epoch time: 15007.53671091 Element set: 337 Inclination: 098.9315 deg RA of node: 332.6338 deg Eccentricity: 0.0019340 Arg of perigee: 254.5733 deg Mean anomaly: 239.6816 deg Mean motion: 14.12840175 rev/day Decay rate: 2.652e-05 rev/day^2 Epoch rev: 80636 Checksum: 299
Satellite: OKEAN-0 Catalog number: 25860 Epoch time: 15008.53722495 Element set: 461 Inclination: 098.0733 deg RA of node: 336.5648 deg Eccentricity: 0.0001981 Arg of perigee: 105.9767 deg Mean anomaly: 030.8345 deg Mean motion: 14.75725961 rev/day Decay rate: 1.075e-05 rev/day^2 Epoch rev: 83243 Checksum: 314
Satellite: NOAA-16 Catalog number: 26536 Epoch time: 15008.49692975 Element set: 982 Inclination: 098.9640 deg RA of node: 074.4732 deg Eccentricity: 0.0009738 Arg of perigee: 327.8096 deg Mean anomaly: 032.2480 deg Mean motion: 14.13068565 rev/day Decay rate: 8.4e-07 rev/day^2 Epoch rev: 73710 Checksum: 337
Satellite: NOAA-17 Catalog number: 27453 Epoch time: 15008.53405261 Element set: 875 Inclination: 098.3275 deg RA of node: 002.5593 deg Eccentricity: 0.0010581 Arg of perigee: 292.7373 deg Mean anomaly: 067.2688 deg Mean motion: 14.24841097 rev/day Decay rate: 1.23e-06 rev/day^2 Epoch rev: 65192 Checksum: 311
Satellite: NOAA-18 Catalog number: 28654 Epoch time: 15008.53282799 Element set: 397 Inclination: 099.1717 deg RA of node: 357.3990 deg Eccentricity: 0.0014929 Arg of perigee: 051.2252 deg Mean anomaly: 097.7266 deg Mean motion: 14.12130279 rev/day Decay rate: 3.04e-06 rev/day^2 Epoch rev: 49654 Checksum: 336
Satellite: NOAA-19 Catalog number: 33591 Epoch time: 15008.53114896 Element set: 527 Inclination: 098.9712 deg RA of node: 318.2053 deg Eccentricity: 0.0013087 Arg of perigee: 259.2449 deg Mean anomaly: 230.8427 deg Mean motion: 14.11851585 rev/day Decay rate: 1.61e-06 rev/day^2 Epoch rev: 30496 Checksum: 313
/EX SB KEPS @ AMSAT $ORB15008.M Orbital Elements 15008.MISC
HR AMSAT ORBITAL ELEMENTS FOR MANNED AND MISCELLANEOUS SATELLITES FROM WA5QGD FORT WORTH,TX January 8, 2015 BID: ORB15008.M TO ALL RADIO AMATEURS BT
Satellite: HUBBLE Catalog number: 20580 Epoch time: 15007.72696569 Element set: 195 Inclination: 028.4702 deg RA of node: 131.5985 deg Eccentricity: 0.0002851 Arg of perigee: 323.1651 deg Mean anomaly: 180.9493 deg Mean motion: 15.06582142 rev/day Decay rate: 2.812e-05 rev/day^2 Epoch rev: 15558 Checksum: 298
Satellite: ISS Catalog number: 25544 Epoch time: 15008.79170417 Element set: 700 Inclination: 051.6458 deg RA of node: 159.6477 deg Eccentricity: 0.0006317 Arg of perigee: 227.4134 deg Mean anomaly: 285.9787 deg Mean motion: 15.53092765 rev/day Decay rate: 1.4663e-04 rev/day^2 Epoch rev: 92323 Checksum: 320
Satellite: CO-58 Catalog number: 28895 Epoch time: 15008.51927961 Element set: 964 Inclination: 097.8218 deg RA of node: 204.6450 deg Eccentricity: 0.0018455 Arg of perigee: 083.2937 deg Mean anomaly: 277.0365 deg Mean motion: 14.62405837 rev/day Decay rate: 1.198e-05 rev/day^2 Epoch rev: 49025 Checksum: 347
Satellite: FALCON Catalog number: 30776 Epoch time: 15007.21273191 Element set: 46 Inclination: 035.4282 deg RA of node: 287.4060 deg Eccentricity: 0.0004450 Arg of perigee: 288.2266 deg Mean anomaly: 197.2923 deg Mean motion: 15.20507041 rev/day Decay rate: 1.1661e-04 rev/day^2 Epoch rev: 43175 Checksum: 270
Satellite: MAST Catalog number: 31126 Epoch time: 15008.49505372 Element set: 246 Inclination: 097.9407 deg RA of node: 344.0082 deg Eccentricity: 0.0092769 Arg of perigee: 074.3906 deg Mean anomaly: 042.8951 deg Mean motion: 14.55717081 rev/day Decay rate: 1.182e-05 rev/day^2 Epoch rev: 41025 Checksum: 293
Satellite: CAPE1 Catalog number: 31130 Epoch time: 15008.87635437 Element set: 252 Inclination: 097.9624 deg RA of node: 341.3072 deg Eccentricity: 0.0099442 Arg of perigee: 091.9721 deg Mean anomaly: 269.2869 deg Mean motion: 14.55038707 rev/day Decay rate: 1.465e-05 rev/day^2 Epoch rev: 40971 Checksum: 316
Satellite: COMPASS Catalog number: 32787 Epoch time: 15008.19228510 Element set: 147 Inclination: 097.6740 deg RA of node: 060.7146 deg Eccentricity: 0.0012713 Arg of perigee: 219.0669 deg Mean anomaly: 140.9631 deg Mean motion: 14.89503318 rev/day Decay rate: 5.293e-05 rev/day^2 Epoch rev: 36268 Checksum: 303
Satellite: AAUSAT2 Catalog number: 32788 Epoch time: 15007.55239676 Element set: 133 Inclination: 097.6756 deg RA of node: 061.3503 deg Eccentricity: 0.0012066 Arg of perigee: 217.7123 deg Mean anomaly: 142.3251 deg Mean motion: 14.90390882 rev/day Decay rate: 7.026e-05 rev/day^2 Epoch rev: 36266 Checksum: 297
Satellite: DO-64 Catalog number: 32789 Epoch time: 15008.12495663 Element set: 187 Inclination: 097.6955 deg RA of node: 070.6053 deg Eccentricity: 0.0011146 Arg of perigee: 194.1102 deg Mean anomaly: 221.5172 deg Mean motion: 14.96935207 rev/day Decay rate: 1.2943e-04 rev/day^2 Epoch rev: 36311 Checksum: 305
Satellite: CO-66 Catalog number: 32791 Epoch time: 15008.41824928 Element set: 130 Inclination: 097.6739 deg RA of node: 059.2295 deg Eccentricity: 0.0013205 Arg of perigee: 223.3272 deg Mean anomaly: 136.6908 deg Mean motion: 14.87831913 rev/day Decay rate: 4.693e-05 rev/day^2 Epoch rev: 36255 Checksum: 325
Satellite: RS-30 Catalog number: 32953 Epoch time: 15008.71258593 Element set: 625 Inclination: 082.5048 deg RA of node: 073.4243 deg Eccentricity: 0.0019385 Arg of perigee: 070.3288 deg Mean anomaly: 289.9884 deg Mean motion: 12.43054692 rev/day Decay rate: 1.0e-07 rev/day^2 Epoch rev: 30079 Checksum: 311
Satellite: METEOR-M Catalog number: 35865 Epoch time: 15008.62484966 Element set: 233 Inclination: 098.5202 deg RA of node: 054.5142 deg Eccentricity: 0.0001921 Arg of perigee: 208.8999 deg Mean anomaly: 151.2069 deg Mean motion: 14.21977128 rev/day Decay rate: -7.3e-07 rev/day^2 Epoch rev: 27553 Checksum: 309
Satellite: RS-38 Catalog number: 35869 Epoch time: 15008.82955729 Element set: 141 Inclination: 098.5124 deg RA of node: 054.4173 deg Eccentricity: 0.0004293 Arg of perigee: 207.1432 deg Mean anomaly: 152.9516 deg Mean motion: 14.22259748 rev/day Decay rate: -4.30e-06 rev/day^2 Epoch rev: 27560 Checksum: 310
Satellite: JUGNU Catalog number: 37839 Epoch time: 15007.57814563 Element set: 768 Inclination: 019.9621 deg RA of node: 096.1026 deg Eccentricity: 0.0019183 Arg of perigee: 075.9674 deg Mean anomaly: 049.3778 deg Mean motion: 14.12403377 rev/day Decay rate: 4.69e-06 rev/day^2 Epoch rev: 16748 Checksum: 339
Satellite: SRMSAT Catalog number: 37841 Epoch time: 15007.65054390 Element set: 773 Inclination: 019.9722 deg RA of node: 119.1034 deg Eccentricity: 0.0012121 Arg of perigee: 009.3549 deg Mean anomaly: 128.8214 deg Mean motion: 14.10427768 rev/day Decay rate: 4.25e-06 rev/day^2 Epoch rev: 16725 Checksum: 278
Satellite: RAX-2 Catalog number: 37853 Epoch time: 15008.30572178 Element set: 9 Inclination: 101.7042 deg RA of node: 141.2271 deg Eccentricity: 0.0205321 Arg of perigee: 182.2024 deg Mean anomaly: 244.7707 deg Mean motion: 14.93152382 rev/day Decay rate: 1.6826e-04 rev/day^2 Epoch rev: 17322 Checksum: 264
Satellite: AUBIESAT Catalog number: 37854 Epoch time: 15008.35585582 Element set: 8 Inclination: 101.7103 deg RA of node: 143.9667 deg Eccentricity: 0.0201335 Arg of perigee: 178.0645 deg Mean anomaly: 245.2138 deg Mean motion: 14.94946444 rev/day Decay rate: 1.9901e-04 rev/day^2 Epoch rev: 17331 Checksum: 300
